Find Starlink 33905

NORAD ID: 63881 Int'l Des: 2025-094 Owner: SPXS Country: US Constellation: starlink operational
LEOCIRCULAR

現在のビュー

3D地球を読み込み中...

About Starlink 33905

Starlink 33905 (NORAD 63881) is a starlink constellation satellite (v2 mini) launched May 10, 2025 by SPXS of US. It operates in LEO, CIRCULAR orbit with a mass of 575.00 kg.

Starlink 33905について

説明を読み込み中...

次回通過

Passes for default location (London). Set your location on the main map for personalized predictions.

高度履歴

Loading altitude history...

軌道要素

1 63881U 25094T 26194.64341935 .00002129 00000-0 18617-3 0 9993
2 63881 70.0013 276.7316 0003453 269.0754 91.0009 14.98335295 66076
Epoch: Jul 13, 2026 • Age: 23 hours

現在のステータス

高度 585.7 km
遠地点 / 近地点 N/A
速度 7.57 km/s
衛星直下点 69.11°N, 124.14°W
打ち上げ日 May 10, 2025
運用期間 1.1 years
タイプ internet

技術仕様

分類 Payload
質量 575.00 kg
乾燥質量 530.00 kg
総質量 575.00 kg
長さ 0.30 m
直径 4.10 m
スパン 29.00 m
形状 Box + pan
製造者 SPXS
バスタイプ Starlink V2MO
フェーズステータス In Orbit
所有者/国 SPXS/US

Most Searched